TimeCDT,TemperatureF,Dew PointF,Humidity,Sea Level PressureIn,VisibilityMPH,Wind Direction,Wind SpeedMPH,Gust SpeedMPH,PrecipitationIn,Events,Conditions,WindDirDegrees,DateUTC
12:53 AM,82.0,72.0,71,30.01,10.0,SE,13.8,-,N/A,,Clear,130,2013-07-31 05:53:00
2:53 AM,79.0,72.0,79,30.00,10.0,SE,10.4,-,N/A,,Clear,140,2013-07-31 07:53:00
3:53 AM,78.1,71.1,79,30.00,10.0,SE,6.9,-,N/A,,Clear,140,2013-07-31 08:53:00
4:53 AM,75.9,71.1,85,30.01,10.0,SE,5.8,-,N/A,,Clear,130,2013-07-31 09:53:00
5:53 AM,73.9,70.0,87,30.01,10.0,ESE,5.8,-,N/A,,Clear,110,2013-07-31 10:53:00
6:53 AM,73.0,70.0,90,30.02,8.0,East,5.8,-,N/A,,Clear,90,2013-07-31 11:53:00
7:53 AM,73.9,71.1,91,30.04,7.0,ENE,5.8,-,N/A,,Clear,70,2013-07-31 12:53:00
8:53 AM,77.0,72.0,84,30.06,8.0,ENE,5.8,-,N/A,,Clear,70,2013-07-31 13:53:00
9:28 AM,78.8,71.6,78,30.09,9.0,ESE,4.6,-,N/A,,Mostly Cloudy,120,2013-07-31 14:28:00
9:53 AM,79.0,72.0,79,30.06,10.0,Variable,4.6,-,N/A,,Scattered Clouds,0,2013-07-31 14:53:00
10:53 AM,86.0,72.0,63,30.06,10.0,South,4.6,-,N/A,,Clear,190,2013-07-31 15:53:00
11:53 AM,90.0,71.1,54,30.04,10.0,Calm,Calm,-,N/A,,Clear,0,2013-07-31 16:53:00
12:53 PM,93.9,69.1,44,30.02,10.0,Variable,3.5,-,N/A,,Clear,0,2013-07-31 17:53:00
1:53 PM,97.0,64.9,35,29.99,10.0,Variable,5.8,-,N/A,,Clear,0,2013-07-31 18:53:00
2:53 PM,100.9,57.9,24,29.97,10.0,South,8.1,-,N/A,,Clear,170,2013-07-31 19:53:00
3:53 PM,102.9,55.0,20,29.94,10.0,ESE,5.8,-,N/A,,Clear,120,2013-07-31 20:53:00
4:53 PM,104.0,54.0,19,29.91,10.0,Calm,Calm,-,N/A,,Clear,0,2013-07-31 21:53:00
5:53 PM,102.9,53.1,19,29.90,10.0,ESE,8.1,20.7,N/A,,Clear,110,2013-07-31 22:53:00
6:53 PM,102.0,51.1,18,29.88,10.0,ESE,13.8,-,N/A,,Clear,110,2013-07-31 23:53:00
7:53 PM,99.0,57.9,25,29.89,10.0,East,10.4,-,N/A,,Clear,90,2013-08-01 00:53:00
8:53 PM,95.0,59.0,30,29.90,10.0,ESE,8.1,-,N/A,,Clear,110,2013-08-01 01:53:00
9:53 PM,91.9,68.0,45,29.92,10.0,ESE,12.7,-,N/A,,Clear,110,2013-08-01 02:53:00
10:53 PM,89.1,73.0,59,29.95,10.0,ESE,12.7,18.4,N/A,,Clear,120,2013-08-01 03:53:00
11:53 PM,86.0,71.1,61,29.96,10.0,SE,12.7,-,N/A,,Clear,130,2013-08-01 04:53:00